Rome, OR

10:01 PM MST on November 19, 2017 (GMT -0700)
Rome State

Weather History for KREO - March, 2013

Change the Weather History Date:

Thursday, March 14, 2013

  Actual Average Record
Temperature  
Mean Temperature 53 °F 40 °F  
Max Temperature 71 °F 53 °F 76 °F (2017)
Min Temperature 34 °F 26 °F 13 °F (1944)
Degree Days  
Heating Degree Days 12 25  
Month to date heating degree days 342 375  
Since 1 July heating degree days 4991 5109  
Cooling Degree Days 0 0  
Month to date cooling degree days 0 0  
Year to date cooling degree days 0 0  
Growing Degree Days 3 (Base 50)    
Moisture  
Dew Point 19 °F    
Average Humidity 34    
Maximum Humidity 56    
Minimum Humidity 11    
Precipitation  
Precipitation 0.00 in 0.03 in 0.22 in (1945)
Month to date precipitation 0.03 0.39  
Year to date precipitation 0.81 1.80  
Sea Level Pressure  
Sea Level Pressure 30.13 in    
Wind  
Wind Speed 6 mph (SSW)    
Max Wind Speed 23 mph    
Max Gust Speed 29 mph    
T = Trace of Precipitation, MM = Missing Value Source: NWS Daily Summary

Daily Weather History Graph

Daily Weather History Graph

Search for Another Location

Airport or City:

Trip Planner

Search our weather history database for the weather conditions in past years. The results will help you decide how hot, cold, wet, or windy it might be!

Date:

Astronomy

Mar. 14, 2013 Rise Set
Actual Time 7:04 AM PDT 6:57 PM PDT
Civil Twilight 6:36 AM PDT 7:25 PM PDT
Nautical Twilight 6:03 AM PDT 7:58 PM PDT
Astronomical Twilight 5:30 AM PDT 8:31 PM PDT
Moon 8:16 AM PDT (3/14) 10:23 PM PDT (3/14)
Length of Visible Light 12h 48m
Length of Day
11h 52m
Waxing Crescent, 9% of the Moon is Illuminated
Mar 14
Waxing Crescent
Mar 19
First Quarter
Mar 27
Full
Apr 2
Last Quarter
Apr 10
New

Hourly Weather History & Observations

Time (PDT) Temp. Windchill Dew Point Humidity Pressure Visibility Wind Dir Wind Speed Gust Speed Precip Events Conditions
12:52 AM 39.0 °F 34.0 °F 21.0 °F 49% 30.17 in - South 6.9 mph - N/A   Unknown
1:52 AM 37.9 °F 32.7 °F 19.9 °F 48% 30.17 in - South 6.9 mph - N/A   Unknown
2:52 AM 37.9 °F 32.7 °F 19.9 °F 48% 30.15 in - SE 6.9 mph - N/A   Unknown
3:52 AM 39.0 °F 36.8 °F 19.9 °F 46% 30.14 in - Variable 3.5 mph - N/A   Unknown
4:52 AM 36.0 °F 32.1 °F 19.9 °F 52% 30.14 in - SSE 4.6 mph - N/A   Unknown
5:52 AM 37.0 °F - 19.9 °F 50% 30.16 in - Calm Calm - N/A   Unknown
6:52 AM 37.0 °F - 21.0 °F 52% 30.17 in - Calm Calm - N/A   Unknown
7:52 AM 36.0 °F - 21.0 °F 55% 30.18 in - Calm Calm - N/A   Unknown
8:52 AM 41.0 °F - 21.9 °F 47% 30.18 in - Calm Calm - N/A   Unknown
9:52 AM 48.0 °F - 24.1 °F 39% 30.18 in - Calm Calm - N/A   Unknown
10:52 AM 52.0 °F - 25.0 °F 35% 30.17 in - Calm Calm - N/A   Unknown
11:52 AM 57.0 °F - 23.0 °F 27% 30.15 in - Calm Calm - N/A   Unknown
12:52 PM 63.0 °F - 21.9 °F 21% 30.13 in - Calm Calm - N/A   Unknown
1:47 PM 69.8 °F - 14.0 °F 12% 30.13 in - SSW 19.6 mph 24.2 mph N/A   Unknown
1:52 PM 70.0 °F - 12.0 °F 11% 30.09 in - SW 16.1 mph 24.2 mph N/A   Unknown
2:52 PM 69.1 °F - 12.9 °F 11% 30.09 in - SW 17.3 mph 24.2 mph N/A   Unknown
3:52 PM 68.0 °F - 15.1 °F 13% 30.09 in - SW 15.0 mph 21.9 mph N/A   Unknown
4:52 PM 68.0 °F - 15.1 °F 13% 30.09 in - SW 18.4 mph 24.2 mph N/A   Unknown
5:52 PM 64.9 °F - 15.1 °F 15% 30.09 in - SW 15.0 mph - N/A   Unknown
6:52 PM 61.0 °F - 17.1 °F 18% 30.10 in - SW 11.5 mph - N/A   Unknown
7:52 PM 57.0 °F - 17.1 °F 21% 30.12 in - SW 11.5 mph - N/A   Unknown
8:52 PM 54.0 °F - 17.1 °F 23% 30.12 in - East 3.5 mph - N/A   Unknown
9:52 PM 53.1 °F - 19.0 °F 26% 30.11 in - South 8.1 mph - N/A   Unknown
10:52 PM 46.9 °F - 19.0 °F 33% 30.11 in - South 10.4 mph - N/A   Unknown
11:52 PM 45.0 °F - 19.0 °F 36% 30.11 in - Calm Calm - N/A   Unknown